This is the latest recevied weather packets stored in our database for station/object WB4ZUT. If no packets are shown the sender has not sent any weather packets the latest 10 day(s).
| Time | Temp. | Humidity | Pressure | Rain* | Wind** | Luminosity | Snow |
|---|---|---|---|---|---|---|---|
| 1777831356 | 17.22° C | 52% | 1018.6 hPa | 0 mm | - | 479 W/m² | - |
| 1777831052 | 17.78° C | 51% | 1018.7 hPa | 0 mm | - | 719 W/m² | - |
| 1777830751 | 17.78° C | 54% | 1018.7 hPa | 0 mm | - | 712 W/m² | - |
| 1777830446 | 17.78° C | 51% | 1018.9 hPa | 0 mm | - | 694 W/m² | - |
| 1777830144 | 17.78° C | 51% | 1019 hPa | 0 mm | - | 702 W/m² | - |
| 1777829839 | 17.22° C | 51% | 1019.1 hPa | 0 mm | - | 719 W/m² | - |
| 1777829536 | 17.78° C | 52% | 1019.1 hPa | 0 mm | - | 719 W/m² | - |
| 1777829233 | 16.67° C | 53% | 1019.3 hPa | 0 mm | - | 722 W/m² | - |
| 1777828930 | 17.22° C | 53% | 1019.5 hPa | 0 mm | - | 738 W/m² | - |
| 1777828626 | 17.22° C | 56% | 1019.6 hPa | 0 mm | - | 735 W/m² | - |
| 1777828323 | 17.22° C | 53% | 1019.5 hPa | 0 mm | - | 718 W/m² | - |
| 1777828020 | 16.67° C | 52% | 1019.6 hPa | 0 mm | - | 720 W/m² | - |
| 1777827717 | 16.67° C | 52% | 1019.8 hPa | 0 mm | - | 715 W/m² | - |
| 1777827414 | 16.67° C | 52% | 1019.6 hPa | 0 mm | - | 737 W/m² | - |
| 1777827110 | 16.67° C | 52% | 1019.9 hPa | 0 mm | - | 758 W/m² | - |
| 1777826807 | 16.67° C | 52% | 1019.8 hPa | 0 mm | - | 774 W/m² | - |
| 1777826504 | 16.67° C | 52% | 1019.9 hPa | 0 mm | - | 745 W/m² | - |
| 1777826201 | 16.67° C | 50% | 1020.1 hPa | 0 mm | - | 758 W/m² | - |
| 1777825898 | 16.67° C | 53% | 1020.3 hPa | 0 mm | - | 786 W/m² | - |
| 1777825595 | 16.11° C | 51% | 1020 hPa | 0 mm | - | 827 W/m² | - |
| 1777825294 | 16.11° C | 52% | 1019.8 hPa | 0 mm | - | 846 W/m² | - |
| 1777824990 | 16.11° C | 51% | 1020 hPa | 0 mm | - | 835 W/m² | - |
| 1777824686 | 15.56° C | 51% | 1020.1 hPa | 0 mm | - | 813 W/m² | - |
| 1777824383 | 16.11° C | 52% | 1020.3 hPa | 0 mm | - | 801 W/m² | - |
| 1777824079 | 15.56° C | 53% | 1020.2 hPa | 0 mm | - | 814 W/m² | - |
* Rain latest hour (hover to see other rain measurements)
** Current wind speed in m/s (hover to see current wind gust speed)